QPF
0.04 0.04 0.04 0.03 0.03 0.04 0.04 0.03 0.03 0.03 0.03 0.02 0.02 0.02 0.01 0.01 0.02 0.03 0.03 0.02 0.02 0.01 0.01 0.01 0.01 0.01 0.01 0.01 0.01 0.02 0.04 0.05 0.04 0.03 0.03 0.03 0.03 0.03
0.04 0.05 0.05 0.04 0.03 0.03 0.03 0.03 0.03 0.03 0.02 0.02 0.02 0.02 0.02 0.01 0.02 0.02 0.02 0.03 0.02 0.01 0.01 0.01 0.01 0.01 0.01 0.01 0.01 0.01 0.02 0.04 0.05 0.05 0.04 0.04 0.03 0.03
0.03 0.03 0.03 0.04 0.04 0.03 0.03 0.03 0.03 0.03 0.02 0.02 0.02 0.02 0.02 0.02 0.02 0.01 0.01 0.02 0.03 0.02 0.02 0.02 0.01 0.01 0.01 0.01 0.01 0.01 0.01 0.03 0.04 0.04 0.05 0.06 0.04 0.03
0.03 0.02 0.02 0.02 0.02 0.02 0.02 0.02 0.02 0.02 0.02 0.02 0.02 0.02 0.02 0.02 0.02 0.02 0.02 0.02 0.02 0.03 0.03 0.02 0.02 0.02 0.01 0.01 0.01 0.01 0.02 0.02 0.03 0.04 0.04 0.05 0.05 0.03
0.03 0.02 0.01 0.02 0.02 0.02 0.02 0.02 0.01 0.01 0.01 0.01 0.01 0.01 0.02 0.02 0.02 0.02 0.02 0.02 0.02 0.02 0.03 0.02 0.02 0.02 0.01 0.01 0.01 0.01 0.01 0.02 0.03 0.04 0.04 0.04 0.05 0.04
0.03 0.03 0.02 0.01 0.01 0.01 0.01 0.01 0.01 0.01 0.01 0.01 0.01 0.01 0.01 0.02 0.02 0.02 0.02 0.02 0.02 0.02 0.02 0.02 0.02 0.02 0.01 0.01 0.01 0.01 0.01 0.02 0.02 0.03 0.03 0.04 0.04 0.05
0.03 0.04 0.04 0.03 0.02 0.01 0.01 0.01 0.01 0.02 0.02 0.02 0.02 0.01 0.02 0.02 0.03 0.03 0.03 0.02 0.02 0.02 0.02 0.01 0.01 0.01 0.01 0.01 0.02 0.02 0.02 0.02 0.02 0.02 0.03 0.03 0.04 0.04
0.03 0.04 0.05 0.04 0.04 0.03 0.03 0.02 0.02 0.03 0.03 0.02 0.02 0.02 0.02 0.01 0.01 0.02 0.02 0.02 0.02 0.02 0.02 0.02 0.01 0.01 0.01 0.01 0.01 0.02 0.02 0.02 0.02 0.02 0.02 0.02 0.03 0.03
0.07 0.06 0.07 0.07 0.06 0.05 0.04 0.05 0.04 0.03 0.03 0.02 0.02 0.01 0.01 0.01 0.01 0.01 0.01 0.02 0.02 0.02 0.02 0.03 0.03 0.02 0.01 0.01 0.01 0.01 0.01 0.02 0.02 0.02 0.02 0.02 0.02 0.02
0.06 0.06 0.06 0.07 0.08 0.07 0.07 0.07 0.07 0.05 0.04 0.03 0.02 0.02 0.02 0.01 0.02 0.02 0.02 0.03 0.03 0.03 0.03 0.03 0.03 0.03 0.02 0.01 0.01 0.01 0.01 0.01 0.01 0.02 0.02 0.02 0.02 0.02
0.05 0.05 0.04 0.05 0.05 0.06 0.06 0.07 0.06 0.05 0.04 0.04 0.03 0.03 0.03 0.03 0.03 0.04 0.04 0.04 0.04 0.03 0.03 0.03 0.03 0.03 0.03 0.03 0.02 0.01 0.02 0.01 0.01 0.01 0.01 0.01 0.01 0.01
0.04 0.05 0.05 0.04 0.04 0.05 0.05 0.05 0.05 0.04 0.04 0.04 0.04 0.03 0.03 0.03 0.04 0.04 0.04 0.03 0.03 0.03 0.02 0.03 0.03 0.03 0.03 0.03 0.02 0.02 0.01 0.01 0.01 0.01 0.01 0.01 0.01 0.01
0.04 0.04 0.04 0.04 0.04 0.04 0.04 0.04 0.04 0.04 0.04 0.04 0.03 0.03 0.04 0.04 0.04 0.03 0.03 0.03 0.03 0.03 0.02 0.02 0.03 0.03 0.03 0.03 0.03 0.02 0.02 0.01 0.01 0.01 0.01 0.01 0.01 0.01
0.03 0.03 0.03 0.03 0.03 0.04 0.04 0.03 0.04 0.04 0.04 0.05 0.05 0.04 0.03 0.03 0.03 0.03 0.02 0.02 0.02 0.02 0.02 0.02 0.03 0.03 0.03 0.03 0.03 0.03 0.02 0.02 0.01 0.01 0.01 0.01 0.01 0.00
0.03 0.03 0.03 0.03 0.03 0.04 0.05 0.04 0.04 0.04 0.04 0.04 0.04 0.03 0.03 0.02 0.03 0.03 0.02 0.02 0.03 0.03 0.03 0.03 0.03 0.03 0.03 0.03 0.02 0.03 0.03 0.02 0.02 0.02 0.02 0.01 0.01 0.00
0.03 0.03 0.03 0.03 0.03 0.03 0.04 0.05 0.04 0.03 0.03 0.03 0.03 0.03 0.03 0.03 0.03 0.03 0.03 0.03 0.03 0.03 0.03 0.03 0.03 0.02 0.03 0.02 0.02 0.02 0.02 0.02 0.02 0.02 0.02 0.01 0.01 0.01
0.02 0.03 0.04 0.03 0.03 0.04 0.04 0.03 0.03 0.03 0.03 0.03 0.03 0.03 0.03 0.03 0.03 0.03 0.03 0.03 0.02 0.02 0.03 0.03 0.02 0.02 0.02 0.02 0.02 0.02 0.01 0.01 0.02 0.02 0.01 0.01 0.01 0.01
0.04 0.04 0.04 0.04 0.03 0.03 0.03 0.03 0.03 0.03 0.03 0.03 0.03 0.03 0.03 0.02 0.02 0.02 0.02 0.02 0.02 0.02 0.02 0.02 0.02 0.02 0.02 0.02 0.01 0.01 0.01 0.01 0.01 0.01 0.01 0.01 0.01 0.01
0.04 0.03 0.03 0.03 0.03 0.03 0.03 0.03 0.04 0.04 0.03 0.03 0.03 0.03 0.03 0.03 0.03 0.03 0.03 0.02 0.02 0.02 0.02 0.02 0.02 0.02 0.02 0.02 0.01 0.01 0.01 0.01 0.01 0.01 0.01 0.01 0.01 0.00
0.03 0.03 0.02 0.03 0.03 0.03 0.03 0.03 0.03 0.03 0.03 0.03 0.03 0.03 0.03 0.03 0.03 0.03 0.02 0.02 0.02 0.02 0.02 0.02 0.02 0.02 0.02 0.02 0.01 0.01 0.01 0.01 0.01 0.00 0.00 0.00 0.00 0.00
0.01 0.02 0.02 0.02 0.03 0.03 0.03 0.03 0.03 0.03 0.02 0.02 0.02 0.02 0.02 0.02 0.02 0.02 0.02 0.02 0.02 0.02 0.02 0.01 0.01 0.01 0.01 0.02 0.02 0.01 0.01 0.00 0.00 0.00 0.00 0.01 0.01 0.00
0.02 0.02 0.02 0.02 0.02 0.03 0.03 0.03 0.03 0.03 0.02 0.02 0.02 0.02 0.02 0.02 0.02 0.01 0.01 0.01 0.01 0.01 0.01 0.01 0.01 0.01 0.01 0.02 0.01 0.01 0.00 0.00 0.00 0.00 0.00 0.01 0.02 0.02
0.02 0.02 0.02 0.02 0.02 0.03 0.03 0.03 0.03 0.03 0.02 0.02 0.02 0.02 0.02 0.02 0.02 0.01 0.01 0.01 0.01 0.01 0.01 0.01 0.01 0.01 0.01 0.01 0.01 0.01 0.00 0.00 0.00 0.00 0.00 0.00 0.00 0.01
MSLP
1017.93 1018.52 1019.12 1019.72 1020.33 1020.95 1021.58 1022.22 1022.86 1023.50 1024.12 1024.71 1025.26 1025.78 1026.26 1026.72 1027.16 1027.60 1028.04 1028.50 1028.97 1029.46 1029.94 1030.41 1030.85 1031.25 1031.61 1031.93 1032.19 1032.41 1032.58 1032.71 1032.79 1032.82 1032.80 1032.74 1032.63 1032.49
1017.20 1017.77 1018.33 1018.89 1019.48 1020.09 1020.73 1021.40 1022.08 1022.76 1023.43 1024.07 1024.67 1025.22 1025.72 1026.20 1026.66 1027.12 1027.60 1028.10 1028.63 1029.17 1029.72 1030.25 1030.75 1031.20 1031.59 1031.93 1032.22 1032.46 1032.67 1032.84 1032.98 1033.10 1033.17 1033.21 1033.20 1033.16
1016.37 1016.92 1017.47 1018.02 1018.59 1019.20 1019.86 1020.55 1021.27 1022.00 1022.72 1023.41 1024.05 1024.63 1025.17 1025.68 1026.16 1026.65 1027.17 1027.72 1028.31 1028.92 1029.53 1030.12 1030.68 1031.17 1031.60 1031.96 1032.26 1032.51 1032.73 1032.93 1033.12 1033.30 1033.45 1033.58 1033.67 1033.71
1015.41 1015.98 1016.54 1017.09 1017.67 1018.29 1018.96 1019.68 1020.43 1021.20 1021.97 1022.70 1023.38 1024.01 1024.58 1025.12 1025.64 1026.18 1026.74 1027.35 1028.01 1028.69 1029.37 1030.04 1030.65 1031.20 1031.66 1032.04 1032.34 1032.60 1032.82 1033.03 1033.25 1033.46 1033.67 1033.87 1034.03 1034.15
1014.34 1014.95 1015.53 1016.11 1016.71 1017.34 1018.03 1018.77 1019.55 1020.35 1021.15 1021.92 1022.64 1023.30 1023.91 1024.49 1025.06 1025.65 1026.28 1026.95 1027.69 1028.45 1029.22 1029.97 1030.65 1031.26 1031.76 1032.16 1032.48 1032.73 1032.95 1033.16 1033.38 1033.61 1033.85 1034.09 1034.31 1034.49
1013.18 1013.85 1014.48 1015.10 1015.72 1016.37 1017.07 1017.82 1018.60 1019.42 1020.23 1021.01 1021.76 1022.45 1023.11 1023.73 1024.36 1025.01 1025.71 1026.47 1027.29 1028.16 1029.02 1029.86 1030.64 1031.31 1031.87 1032.31 1032.65 1032.90 1033.12 1033.31 1033.52 1033.75 1034.00 1034.26 1034.51 1034.74
1012.00 1012.73 1013.41 1014.07 1014.72 1015.38 1016.07 1016.81 1017.58 1018.38 1019.18 1019.97 1020.72 1021.44 1022.13 1022.80 1023.49 1024.21 1025.00 1025.85 1026.77 1027.74 1028.72 1029.66 1030.53 1031.29 1031.93 1032.42 1032.79 1033.06 1033.28 1033.47 1033.66 1033.87 1034.11 1034.38 1034.65 1034.90
1010.84 1011.62 1012.36 1013.04 1013.71 1014.36 1015.03 1015.73 1016.47 1017.22 1018.00 1018.76 1019.51 1020.24 1020.96 1021.68 1022.44 1023.24 1024.11 1025.06 1026.08 1027.16 1028.25 1029.31 1030.29 1031.15 1031.87 1032.43 1032.86 1033.17 1033.40 1033.58 1033.76 1033.96 1034.19 1034.44 1034.72 1034.98
1009.72 1010.56 1011.32 1012.03 1012.69 1013.32 1013.95 1014.60 1015.27 1015.97 1016.69 1017.42 1018.16 1018.90 1019.65 1020.41 1021.23 1022.10 1023.06 1024.10 1025.22 1026.40 1027.60 1028.76 1029.85 1030.82 1031.64 1032.29 1032.79 1033.16 1033.42 1033.63 1033.81 1034.01 1034.22 1034.47 1034.74 1035.01
1008.66 1009.52 1010.31 1011.01 1011.65 1012.25 1012.82 1013.41 1014.01 1014.64 1015.31 1016.00 1016.72 1017.47 1018.24 1019.05 1019.92 1020.87 1021.90 1023.02 1024.22 1025.48 1026.77 1028.03 1029.21 1030.29 1031.21 1031.96 1032.55 1033.00 1033.33 1033.58 1033.79 1034.00 1034.22 1034.47 1034.74 1035.02
1007.63 1008.50 1009.28 1009.98 1010.59 1011.14 1011.66 1012.18 1012.72 1013.29 1013.91 1014.58 1015.29 1016.05 1016.85 1017.71 1018.63 1019.63 1020.71 1021.89 1023.15 1024.47 1025.82 1027.15 1028.41 1029.57 1030.59 1031.45 1032.15 1032.69 1033.11 1033.43 1033.70 1033.95 1034.20 1034.46 1034.74 1035.03
1006.60 1007.46 1008.24 1008.92 1009.50 1010.01 1010.49 1010.96 1011.45 1011.99 1012.58 1013.23 1013.95 1014.73 1015.57 1016.47 1017.43 1018.48 1019.60 1020.81 1022.10 1023.45 1024.82 1026.19 1027.51 1028.74 1029.84 1030.80 1031.60 1032.26 1032.78 1033.20 1033.55 1033.87 1034.16 1034.46 1034.76 1035.06
1005.57 1006.42 1007.18 1007.84 1008.40 1008.89 1009.34 1009.78 1010.25 1010.77 1011.36 1012.03 1012.77 1013.59 1014.47 1015.42 1016.43 1017.50 1018.65 1019.87 1021.16 1022.50 1023.87 1025.24 1026.58 1027.85 1029.02 1030.07 1030.98 1031.75 1032.39 1032.92 1033.38 1033.77 1034.14 1034.48 1034.81 1035.13
1004.56 1005.40 1006.14 1006.79 1007.34 1007.82 1008.27 1008.71 1009.18 1009.72 1010.33 1011.03 1011.82 1012.68 1013.62 1014.61 1015.66 1016.76 1017.92 1019.13 1020.39 1021.70 1023.04 1024.39 1025.73 1027.01 1028.23 1029.35 1030.34 1031.22 1031.98 1032.63 1033.20 1033.69 1034.12 1034.52 1034.89 1035.23
1003.65 1004.47 1005.21 1005.84 1006.40 1006.88 1007.33 1007.79 1008.29 1008.86 1009.52 1010.27 1011.11 1012.03 1013.02 1014.07 1015.15 1016.27 1017.43 1018.62 1019.85 1021.11 1022.41 1023.72 1025.03 1026.31 1027.54 1028.71 1029.78 1030.75 1031.61 1032.37 1033.03 1033.61 1034.12 1034.57 1034.96 1035.32
1002.95 1003.75 1004.47 1005.10 1005.65 1006.14 1006.62 1007.10 1007.64 1008.25 1008.95 1009.76 1010.66 1011.64 1012.69 1013.78 1014.90 1016.04 1017.19 1018.36 1019.56 1020.77 1022.02 1023.28 1024.55 1025.81 1027.04 1028.23 1029.35 1030.38 1031.32 1032.17 1032.91 1033.56 1034.12 1034.60 1035.02 1035.37
1002.58 1003.34 1004.04 1004.65 1005.20 1005.70 1006.19 1006.70 1007.26 1007.91 1008.66 1009.51 1010.46 1011.49 1012.59 1013.72 1014.88 1016.03 1017.19 1018.35 1019.52 1020.70 1021.89 1023.10 1024.33 1025.56 1026.78 1027.97 1029.11 1030.17 1031.16 1032.05 1032.84 1033.53 1034.11 1034.61 1035.02 1035.35
1002.63 1003.36 1004.01 1004.60 1005.13 1005.62 1006.11 1006.63 1007.21 1007.88 1008.65 1009.53 1010.52 1011.59 1012.72 1013.88 1015.06 1016.24 1017.41 1018.57 1019.72 1020.87 1022.04 1023.21 1024.40 1025.59 1026.78 1027.95 1029.08 1030.14 1031.13 1032.03 1032.82 1033.52 1034.10 1034.58 1034.97 1035.27
1003.16 1003.82 1004.43 1004.97 1005.47 1005.93 1006.40 1006.91 1007.49 1008.16 1008.93 1009.82 1010.82 1011.90 1013.05 1014.23 1015.43 1016.63 1017.81 1018.98 1020.13 1021.27 1022.42 1023.57 1024.72 1025.88 1027.03 1028.17 1029.26 1030.29 1031.25 1032.11 1032.88 1033.54 1034.09 1034.53 1034.87 1035.13
1004.14 1004.73 1005.27 1005.76 1006.20 1006.63 1007.06 1007.54 1008.09 1008.74 1009.50 1010.38 1011.36 1012.43 1013.57 1014.76 1015.97 1017.17 1018.37 1019.55 1020.71 1021.85 1022.99 1024.13 1025.26 1026.38 1027.49 1028.58 1029.61 1030.59 1031.49 1032.30 1033.00 1033.60 1034.10 1034.48 1034.77 1034.98
1005.52 1006.03 1006.49 1006.90 1007.28 1007.66 1008.05 1008.49 1009.01 1009.62 1010.34 1011.18 1012.13 1013.18 1014.30 1015.47 1016.66 1017.87 1019.06 1020.25 1021.42 1022.57 1023.71 1024.83 1025.94 1027.04 1028.10 1029.13 1030.10 1031.01 1031.84 1032.57 1033.20 1033.73 1034.15 1034.48 1034.71 1034.87
1007.18 1007.60 1007.98 1008.32 1008.64 1008.97 1009.31 1009.71 1010.18 1010.75 1011.43 1012.23 1013.13 1014.13 1015.21 1016.34 1017.50 1018.69 1019.87 1021.05 1022.22 1023.37 1024.50 1025.62 1026.71 1027.77 1028.79 1029.76 1030.67 1031.50 1032.25 1032.91 1033.46 1033.92 1034.28 1034.55 1034.75 1034.87
1009.02 1009.35 1009.65 1009.93 1010.19 1010.46 1010.77 1011.13 1011.56 1012.09 1012.73 1013.48 1014.32 1015.26 1016.28 1017.36 1018.47 1019.61 1020.77 1021.92 1023.07 1024.21 1025.32 1026.42 1027.49 1028.52 1029.49 1030.41 1031.26 1032.03 1032.71 1033.29 1033.78 1034.18 1034.50 1034.74 1034.91 1035.02
Thickness
5488 5489 5490 5491 5492 5493 5494 5493 5490 5486 5486 5487 5487 5489 5490 5492 5493 5495 5497 5499 5501 5502 5504 5506 5507 5509 5509 5511 5511 5512 5513 5514 5515 5516 5517 5518 5519 5519
5474 5475 5476 5477 5479 5479 5480 5480 5480 5480 5477 5477 5476 5478 5478 5479 5481 5483 5485 5487 5489 5491 5492 5494 5495 5497 5498 5499 5500 5501 5502 5503 5504 5505 5505 5506 5507 5507
5460 5461 5463 5464 5465 5466 5466 5467 5467 5467 5465 5464 5463 5464 5465 5467 5468 5470 5472 5474 5477 5478 5480 5481 5483 5484 5486 5487 5488 5489 5490 5491 5492 5492 5493 5494 5494 5495
5447 5448 5449 5450 5451 5452 5453 5453 5453 5454 5453 5451 5450 5450 5452 5454 5456 5457 5459 5461 5464 5465 5467 5468 5470 5471 5473 5475 5476 5477 5478 5478 5479 5480 5481 5481 5481 5481
5434 5435 5435 5436 5437 5438 5439 5439 5440 5441 5441 5440 5439 5438 5439 5440 5442 5444 5446 5448 5450 5452 5453 5455 5456 5458 5460 5461 5462 5463 5465 5466 5467 5467 5467 5468 5468 5467
5421 5421 5422 5424 5425 5425 5426 5426 5426 5426 5426 5426 5426 5425 5425 5426 5428 5430 5432 5434 5436 5437 5439 5441 5443 5444 5446 5448 5449 5450 5451 5452 5453 5454 5454 5454 5454 5454
5408 5408 5410 5411 5412 5413 5414 5414 5414 5413 5412 5412 5412 5412 5412 5412 5414 5416 5418 5419 5421 5423 5425 5427 5429 5431 5432 5434 5435 5436 5437 5438 5439 5439 5439 5440 5440 5441
5395 5396 5396 5397 5399 5400 5401 5401 5402 5402 5401 5400 5400 5401 5401 5402 5402 5403 5403 5404 5407 5410 5410 5412 5414 5416 5418 5420 5421 5422 5423 5424 5424 5425 5425 5425 5425 5426
5382 5382 5383 5384 5385 5386 5387 5387 5388 5389 5390 5391 5390 5391 5391 5392 5391 5390 5390 5391 5393 5395 5395 5398 5399 5401 5403 5405 5406 5407 5408 5409 5409 5410 5410 5410 5410 5410
5369 5370 5370 5371 5371 5372 5373 5373 5374 5375 5377 5378 5380 5381 5380 5379 5379 5379 5378 5378 5379 5380 5381 5383 5385 5387 5389 5390 5391 5392 5392 5393 5394 5394 5394 5394 5395 5395
5356 5357 5357 5358 5360 5359 5360 5361 5361 5362 5362 5364 5365 5366 5367 5367 5366 5364 5363 5363 5364 5365 5366 5367 5370 5371 5373 5376 5376 5376 5376 5376 5377 5378 5378 5378 5379 5379
5342 5343 5344 5345 5347 5347 5347 5348 5348 5349 5349 5349 5350 5351 5352 5352 5352 5352 5352 5350 5350 5350 5352 5352 5353 5353 5356 5360 5360 5360 5360 5360 5360 5361 5361 5361 5361 5362
5330 5331 5332 5332 5334 5335 5335 5336 5337 5337 5336 5336 5337 5337 5337 5337 5337 5337 5338 5338 5337 5337 5338 5337 5337 5337 5337 5342 5344 5344 5344 5344 5344 5344 5344 5343 5343 5343
5317 5318 5319 5320 5321 5322 5323 5323 5324 5323 5322 5322 5322 5323 5322 5322 5322 5322 5323 5323 5324 5324 5324 5323 5323 5323 5322 5324 5327 5329 5328 5328 5328 5328 5327 5327 5326 5325
5304 5306 5306 5307 5308 5308 5309 5310 5309 5309 5309 5308 5308 5308 5308 5307 5307 5307 5307 5307 5308 5308 5309 5309 5309 5309 5308 5309 5311 5312 5312 5313 5311 5311 5311 5310 5310 5309
5291 5292 5293 5294 5294 5295 5295 5295 5295 5295 5295 5294 5294 5293 5292 5291 5291 5291 5291 5291 5292 5293 5293 5293 5294 5294 5294 5295 5296 5298 5297 5297 5297 5296 5296 5296 5295 5294
5278 5279 5279 5280 5280 5280 5280 5280 5280 5280 5280 5280 5279 5278 5278 5278 5277 5277 5277 5277 5277 5278 5279 5279 5279 5280 5280 5281 5283 5284 5284 5283 5283 5282 5282 5283 5283 5281
5266 5266 5267 5267 5267 5268 5268 5268 5268 5268 5268 5267 5267 5266 5266 5266 5265 5264 5264 5264 5265 5265 5266 5266 5266 5266 5267 5269 5270 5271 5270 5270 5270 5269 5268 5268 5271 5270
5254 5254 5254 5255 5255 5256 5256 5256 5256 5257 5256 5256 5255 5255 5254 5254 5253 5252 5252 5252 5252 5253 5253 5252 5252 5252 5252 5255 5258 5257 5256 5257 5256 5256 5255 5255 5257 5259
5241 5242 5242 5242 5243 5244 5244 5245 5245 5245 5244 5244 5244 5244 5243 5242 5242 5241 5240 5240 5240 5240 5240 5240 5240 5240 5239 5241 5244 5245 5243 5242 5243 5244 5244 5244 5246 5248
5229 5229 5230 5230 5231 5232 5232 5233 5234 5234 5234 5233 5233 5233 5232 5231 5231 5230 5229 5230 5229 5229 5229 5229 5228 5228 5227 5227 5229 5233 5232 5230 5230 5230 5231 5232 5234 5237
5216 5217 5218 5219 5220 5220 5221 5221 5222 5222 5222 5223 5222 5222 5222 5221 5221 5220 5219 5219 5219 5218 5218 5218 5217 5215 5215 5215 5217 5219 5221 5221 5221 5220 5220 5220 5220 5224
5204 5205 5207 5208 5209 5209 5210 5211 5211 5212 5212 5212 5212 5212 5211 5210 5210 5210 5209 5209 5208 5207 5206 5206 5205 5204 5204 5204 5204 5206 5208 5209 5210 5211 5213 5212 5212 5213